< < Back
Terminal Aerodrome Forecast


Current Version              Previous Versions:   1  2  3  4  5  6  7  8  9  

Terminal Aerodrome Forecast

220
FTUS42 KGSP 192339
TAFGSP
TAF
KGSP 192339Z 2000/2024 07003KT P6SM SCT080 BKN180
     FM200800 05004KT P6SM VCSH SCT030 BKN060
     FM201100 04005KT P6SM -RA BKN024 OVC030
     FM201600 05004KT P6SM VCSH OVC024=

Latest METAR

651
SAUS70 KWBC 200700 RRD
MTRGSP
METAR KGSP 200653Z AUTO 01003KT 10SM OVC100 08/01 A3014 RMK AO2 SLP205
T00780011


USA.gov is the U.S. government's official web portal to all federal, state and local government web resources and services.